CZ-4B R/B, 43656

Orbit data source: Space-Track

CZ-4B R/B, 43656 is space debris in SSO originally from a launch on Wed, 24 Oct 2018 UTC via a CHANG ZHENG 4B launch vehicle from the Taiyaun Space Center, China (TSC). Debris objects in space refer to the collection of defunct objects orbiting the Earth. Examples of debris include non-operational satellites, rocket bodies, and fragments generated from explosions, collisions, or faulty payload assembly.

Loading next visibility...
Identifier
43656, 2018-081B
Orbit
SSO
Country
Flag of CNCN / PRC
Related business
Flag of CNAliExpress, Alibaba Group (CN)
Manufacturer
SAST?
Mission
Spacecraft
Bus & Motor
Unknown
Mass
1,020 kg wet, 20 kg dry
Launch date (UTC)
2018-10-24 (8 years ago)
Launch vehicle
CHANG ZHENG 4B
Launch site
Taiyaun Space Center, China (TSC)
Object type
Payload
Rocket body
Debris
Shape & HBR
Cyl + Box, 2.6 m
Radar Cross Section
19.378 m², Large (>1 m²)

Expand to show TLE details & history
Last TLE update: 2 days ago

TLE from 2 days ago
0 CZ-4B R/B
1 43656U 18081B   26171.39946817  .00000050  00000-0  32813-4 0  9992
2 43656  99.3677  89.5812 0203737 257.4755 100.3568 14.31866791399760
Epoch: 2026-06-20T09:35Z
TLE epoch observation values (Epoch: 2026-06-20T09:35:14.049Z)
Latitude
-0.00007°
Longitude
37.15803°
Altitude
817.512 km
Speed
7.429 km/s
True Right ascension
05h 58m 19s
True Declination
0° 00' 00"
Sunlit
Object was in daylight at epoch
Visualization orbit readout
Latitude
Unknown
Longitude
Unknown
Altitude
Unknown
Speed
Unknown
Apparent Right ascension
Unknown
Apparent Declination
Unknown
Sunlit
N/A
Visualization observer readout
Local Sidereal Time
21:41:44
Azimuth
Unknown
Elevation
Unknown
Doppler factor
Unknown
Orbital elements
Apogee altitude
928.564 km
Perigee altitude
636.779 km
Semi-major axis
7,160.809 km
Eccentricity
0.02037
Inclination
99.3677°
RAAN
89.5812°
Arg. of periapsis
257.4755°
True anomaly
102.64234°
Mean anomaly
100.3568°
Eccentric anomaly
101.50069°
Mean motion
3.58179 °/min
Orbital period
100.51 mins
BSTAR
0.000032813
Loading maneuver chart data...
Computing Atmospheric mass density...
Loading historical data...
Loading historical data...
Loading historical data...
Loading historical data...
Loading historical data...
Loading historical data...
Loading historical data...

Documentation

Showing up to 5 results
|